Location: Lucerne Valley
(34.4439°N, 116.9669°E)
Time: 05:04:19
(UTC-08:00)

OTV 5 (USA 277) - Pass Details

Date: 09 October 2017
Orbit: 404 x 417 km, 43.0° (Epoch: 07 September)

Event Time Altitude Azimuth Distance (km) Brightness Sun altitude
Rises 03:35:03 0° 228° (SW) 2,339 ? -11.0°
Reaches altitude 10° 03:37:11 10° 223° (SW) 1,480 ? -11.4°
Maximum altitude 03:40:26 50° 147° (SSE) 535 ? -12.1°
Enters shadow 03:42:22 21° 79° (E) 980 ? -12.5°
